Weather in Genting Highlands

Malaysia     3°25′28″N   101°47′36″E
temp.,
°C
wind,
m/s
gust,
m/s
humid.,
%
clouds,
%
prec.,
mm/h
press.,
hPa
HPBL,
m
17 may, mon
mon1723:00+23ese0195100 2.1 101014
02:00+22e1195100 3.1 100916
05:00+22ssw119797 2.7 100817
08:00+22se019599 3.6 101029
11:00+28sw226999 0.3 1011889
14:00+26sw128799 4.9 1009629
17:00+26wsw2288100 3.6 1007519
20:00+23wsw119798 6.7 100924
18 may, tue
tue1823:00+22sse019699 4.4 101117
02:00+22ssw0194100 4.4 100916
05:00+22wsw1195100 0.1 100822
08:00+23wsw119595 0.3 101065
11:00+25wsw2387100 2.5 1011451
14:00+25w2487100 6.8 1010519
17:00+23w2491100 2.1 1009327
20:00+21wnw2498100 2.7 1011185
19 may, wed
wed1923:00+21w1296100 0.3 101345
02:00+20ene1195100 1.1 101129
05:00+19nnw1193100 1.0 101027
08:00+20ene0187100 1.0 101111
11:00+24sw1173100 0.0 1011132
14:00+23w0181100 0.0 101058
17:00+22ene1183100 0.0 100914
20:00+22nnw0177100 0.0 101011
20 may, thu
thu2023:00+22e0169100 0.0 101111
02:00+21w1172100 0.0 101020
05:00+21w117587 0.0 100922
08:00+21wsw017787 0.0 101127
11:00+28wsw125779 0.0 1011770
14:00+30wsw22528 0.0 10091495
17:00+29wsw225710 0.0 10071291
20:00+23wnw119451 0.7 101013
21 may, fri
fri2123:00+22ene019439 0.0 101212
02:00+22ne1194100 0.4 101114
05:00+21s11955 0.1 101015
08:00+22se00935 0.1 101139
11:00+29sw116185 0.0 1012942
14:00+31sw225448 0.0 10091598
17:00+30wsw225868 0.0 10071312
20:00+23wnw119718 0.4 101020